When you browse on this site, cookies collect data to enhance your experience and personalize the content and advertising you see.
Visit our Privacy Policy to learn more. By continuing to use the site, you agree to this use of cookies and data.
  • In Deutschland
  • Länderverzeichnis
  • Für 7 Tage
  • Wassertemperatur
  • Wetterkarte
  • Widgets
  • user-avatar
    Anmelden

    Stündliche Wetter Jalalabad

    Heute, 18 September, Mittwoch

    Zeit Temperatur Niederschläge Wind Luftdruck Luftfeuchtigkeit
    00:00 +27°C° 0 mm 0 m/S 708 mmHg 23%
    01:00 +26°C° 0 mm 0 m/S 708 mmHg 25%
    02:00 +26°C° 0 mm 0 m/S 708 mmHg 28%
    03:00 +25°C° 0 mm 0 m/S 708 mmHg 28%
    04:00 +25°C° 0 mm 0 m/S 708 mmHg 29%
    05:00 +24°C° 0 mm 0 m/S 708 mmHg 35%
    06:00 +26°C° 0 mm 0 m/S 708 mmHg 30%
    07:00 +28°C° 0 mm 0 m/S 709 mmHg 25%
    08:00 +29°C° 0 mm 0 m/S 710 mmHg 21%
    09:00 +32°C° 0 mm 1 m/S 710 mmHg 20%
    10:00 +34°C° 0 mm 1 m/S 710 mmHg 20%
    11:00 +35°C° 0 mm 1 m/S 710 mmHg 20%
    12:00 +36°C° 0 mm 1 m/S 710 mmHg 18%
    13:00 +37°C° 0 mm 1 m/S 710 mmHg 16%
    14:00 +39°C° 0 mm 1 m/S 709 mmHg 14%
    15:00 +39°C° 0 mm 2 m/S 709 mmHg 14%
    16:00 +39°C° 0 mm 2 m/S 709 mmHg 14%
    17:00 +39°C° 0 mm 2 m/S 709 mmHg 14%
    18:00 +37°C° 0 mm 2 m/S 709 mmHg 18%
    19:00 +35°C° 0 mm 1 m/S 709 mmHg 22%
    20:00 +33°C° 0 mm 1 m/S 709 mmHg 26%
    21:00 +32°C° 0 mm 1 m/S 709 mmHg 28%
    22:00 +30°C° 0 mm 0 m/S 709 mmHg 31%
    23:00 +29°C° 0 mm 0 m/S 709 mmHg 34%

    Morgen, 19 September, Donnerstag

    Zeit Temperatur Niederschläge Wind Luftdruck Luftfeuchtigkeit
    00:00 +28°C° 0 mm 0 m/S 709 mmHg 35%
    01:00 +28°C° 0 mm 0 m/S 709 mmHg 36%
    02:00 +27°C° 0 mm 0 m/S 709 mmHg 38%
    03:00 +27°C° 0 mm 0 m/S 709 mmHg 37%
    04:00 +26°C° 0 mm 0 m/S 709 mmHg 37%
    05:00 +26°C° 0 mm 0 m/S 709 mmHg 36%
    06:00 +29°C° 0 mm 1 m/S 710 mmHg 32%
    07:00 +30°C° 0 mm 1 m/S 710 mmHg 27%
    08:00 +32°C° 0 mm 1 m/S 711 mmHg 23%
    09:00 +33°C° 0 mm 1 m/S 711 mmHg 23%
    10:00 +34°C° 0 mm 1 m/S 711 mmHg 23%
    11:00 +36°C° 0 mm 2 m/S 711 mmHg 23%
    12:00 +37°C° 0 mm 2 m/S 711 mmHg 20%
    13:00 +37°C° 0 mm 2 m/S 710 mmHg 18%
    14:00 +38°C° 0 mm 2 m/S 710 mmHg 16%
    15:00 +38°C° 0 mm 2 m/S 710 mmHg 17%
    16:00 +38°C° 0 mm 3 m/S 709 mmHg 18%
    17:00 +38°C° 0 mm 3 m/S 709 mmHg 19%
    18:00 +37°C° 0 mm 3 m/S 709 mmHg 24%
    19:00 +35°C° 0 mm 2 m/S 710 mmHg 30%
    20:00 +33°C° 0 mm 1 m/S 710 mmHg 35%
    21:00 +32°C° 0 mm 1 m/S 710 mmHg 37%
    22:00 +31°C° 0 mm 1 m/S 710 mmHg 39%
    23:00 +29°C° 0 mm 0 m/S 710 mmHg 42%

    übermorgen, 20 September, Freitag

    Zeit Temperatur Niederschläge Wind Luftdruck Luftfeuchtigkeit
    00:00 +28°C° 0 mm 0 m/S 710 mmHg 41%
    01:00 +28°C° 0 mm 0 m/S 709 mmHg 41%
    02:00 +27°C° 0 mm 0 m/S 709 mmHg 41%
    03:00 +29°C° 0 mm 1 m/S 709 mmHg 38%
    04:00 +28°C° 0 mm 1 m/S 709 mmHg 36%
    05:00 +28°C° 0 mm 1 m/S 709 mmHg 34%
    06:00 +29°C° 0 mm 1 m/S 710 mmHg 30%
    07:00 +30°C° 0 mm 1 m/S 710 mmHg 26%
    08:00 +31°C° 0 mm 1 m/S 710 mmHg 22%
    09:00 +32°C° 0 mm 1 m/S 710 mmHg 21%
    10:00 +33°C° 0 mm 1 m/S 710 mmHg 19%
    11:00 +34°C° 0 mm 1 m/S 710 mmHg 18%
    12:00 +35°C° 0 mm 1 m/S 710 mmHg 16%
    13:00 +36°C° 0 mm 1 m/S 709 mmHg 14%
    14:00 +37°C° 0 mm 1 m/S 708 mmHg 12%
    15:00 +37°C° 0 mm 1 m/S 708 mmHg 12%
    16:00 +37°C° 0 mm 1 m/S 708 mmHg 13%
    17:00 +37°C° 0 mm 1 m/S 708 mmHg 14%
    18:00 +36°C° 0 mm 1 m/S 708 mmHg 17%
    19:00 +34°C° 0 mm 1 m/S 708 mmHg 21%
    20:00 +33°C° 0 mm 1 m/S 708 mmHg 25%
    21:00 +32°C° 0 mm 1 m/S 709 mmHg 28%
    22:00 +31°C° 0 mm 1 m/S 709 mmHg 31%
    23:00 +31°C° 0 mm 1 m/S 709 mmHg 35%

    21 September, Samstag

    Zeit Temperatur Niederschläge Wind Luftdruck Luftfeuchtigkeit
    00:00 +30°C° 0 mm 1 m/S 708 mmHg 37%
    01:00 +30°C° 0 mm 1 m/S 708 mmHg 38%
    02:00 +29°C° 0 mm 1 m/S 708 mmHg 40%
    03:00 +29°C° 0 mm 1 m/S 708 mmHg 40%
    04:00 +28°C° 0 mm 1 m/S 708 mmHg 40%
    05:00 +28°C° 0 mm 1 m/S 708 mmHg 39%
    06:00 +29°C° 0 mm 1 m/S 708 mmHg 36%
    07:00 +28°C° 0 mm 0 m/S 709 mmHg 32%
    08:00 +29°C° 0 mm 0 m/S 709 mmHg 28%
    09:00 +32°C° 0 mm 1 m/S 709 mmHg 28%
    10:00 +33°C° 0 mm 1 m/S 709 mmHg 28%
    11:00 +34°C° 0 mm 1 m/S 709 mmHg 28%
    12:00 +35°C° 0 mm 1 m/S 708 mmHg 25%
    13:00 +36°C° 0 mm 1 m/S 708 mmHg 22%
    14:00 +37°C° 0 mm 1 m/S 707 mmHg 19%
    15:00 +38°C° 0 mm 2 m/S 707 mmHg 18%
    16:00 +38°C° 0 mm 2 m/S 707 mmHg 18%
    17:00 +38°C° 0 mm 2 m/S 707 mmHg 17%
    18:00 +36°C° 0 mm 1 m/S 707 mmHg 21%
    19:00 +34°C° 0 mm 1 m/S 707 mmHg 25%
    20:00 +33°C° 0 mm 1 m/S 707 mmHg 28%
    21:00 +32°C° 0 mm 1 m/S 707 mmHg 32%
    22:00 +32°C° 0 mm 1 m/S 707 mmHg 36%
    23:00 +31°C° 0 mm 1 m/S 708 mmHg 40%

    22 September, Sonntag

    Zeit Temperatur Niederschläge Wind Luftdruck Luftfeuchtigkeit
    00:00 +31°C° 0 mm 1 m/S 708 mmHg 42%
    01:00 +30°C° 0 mm 1 m/S 708 mmHg 44%
    02:00 +30°C° 0 mm 1 m/S 708 mmHg 46%
    03:00 +29°C° 0 mm 1 m/S 708 mmHg 47%
    04:00 +29°C° 0 mm 1 m/S 707 mmHg 49%
    05:00 +29°C° 0 mm 1 m/S 707 mmHg 50%
    06:00 +29°C° 0 mm 1 m/S 708 mmHg 48%
    07:00 +30°C° 0 mm 1 m/S 709 mmHg 46%
    08:00 +31°C° 0 mm 1 m/S 709 mmHg 43%
    09:00 +32°C° 0 mm 1 m/S 709 mmHg 41%
    10:00 +33°C° 0 mm 1 m/S 709 mmHg 39%
    11:00 +35°C° 0 mm 2 m/S 709 mmHg 37%
    12:00 +36°C° 0 mm 2 m/S 709 mmHg 34%
    13:00 +37°C° 0 mm 2 m/S 708 mmHg 30%
    14:00 +38°C° 0 mm 2 m/S 708 mmHg 27%
    15:00 +38°C° 0 mm 2 m/S 708 mmHg 26%
    16:00 +39°C° 0 mm 2 m/S 708 mmHg 25%
    17:00 +39°C° 0 mm 2 m/S 707 mmHg 24%
    18:00 +37°C° 0 mm 2 m/S 708 mmHg 28%
    19:00 +36°C° 0 mm 2 m/S 708 mmHg 32%
    20:00 +35°C° 0 mm 2 m/S 709 mmHg 36%
    21:00 +33°C° 0 mm 1 m/S 709 mmHg 39%
    22:00 +33°C° 0 mm 1 m/S 709 mmHg 41%
    23:00 +30°C° 0 mm 0 m/S 709 mmHg 44%

    23 September, Montag

    Zeit Temperatur Niederschläge Wind Luftdruck Luftfeuchtigkeit
    00:00 +30°C° 0 mm 0 m/S 709 mmHg 44%
    01:00 +31°C° 0 mm 1 m/S 709 mmHg 44%
    02:00 +31°C° 0 mm 1 m/S 709 mmHg 45%
    03:00 +30°C° 0 mm 1 m/S 709 mmHg 43%
    04:00 +30°C° 0 mm 1 m/S 709 mmHg 42%
    05:00 +29°C° 0 mm 1 m/S 709 mmHg 40%
    06:00 +30°C° 0 mm 1 m/S 709 mmHg 36%
    07:00 +31°C° 0 mm 1 m/S 710 mmHg 32%
    08:00 +32°C° 0 mm 1 m/S 710 mmHg 28%
    09:00 +33°C° 0 mm 1 m/S 710 mmHg 28%
    10:00 +34°C° 0 mm 1 m/S 710 mmHg 28%
    11:00 +35°C° 0 mm 1 m/S 710 mmHg 28%
    12:00 +36°C° 0 mm 1 m/S 709 mmHg 25%
    13:00 +38°C° 0 mm 2 m/S 709 mmHg 22%
    14:00 +39°C° 0 mm 2 m/S 708 mmHg 19%
    15:00 +39°C° 0 mm 2 m/S 708 mmHg 19%
    16:00 +39°C° 0 mm 2 m/S 708 mmHg 19%
    17:00 +39°C° 0 mm 2 m/S 708 mmHg 19%
    18:00 +38°C° 0 mm 2 m/S 708 mmHg 25%
    19:00 +36°C° 0 mm 2 m/S 708 mmHg 31%
    20:00 +34°C° 0 mm 1 m/S 709 mmHg 37%
    21:00 +33°C° 0 mm 1 m/S 709 mmHg 39%
    22:00 +33°C° 0 mm 1 m/S 709 mmHg 41%
    23:00 +30°C° 0 mm 0 m/S 709 mmHg 44%
    Mehr zeigen